Weather History for Nome, AK

Change the Weather History Date:

Monday, May 20, 2013

  Actual Average Record
Temperature  
Mean Temperature 33 °F 39 °F  
Max Temperature 34 °F 45 °F 64 °F (2002)
Min Temperature 31 °F 32 °F 12 °F (1933)
Degree Days  
Heating Degree Days 32 26  
Month to date heating degree days 806 611  
Since 1 July heating degree days 13547 12924  
Cooling Degree Days 0    
Month to date cooling degree days 0  
Year to date cooling degree days 0  
Moisture  
Dew Point 31 °F    
Average Humidity 0    
Maximum Humidity 0    
Minimum Humidity 0    
Precipitation  
Precipitation 0.27 in 0.03 in 0.75 in (1989)
Month to date precipitation 0.58 0.56  
Year to date precipitation 3.04 3.84  
Snow  
Snow 2.00 in 0.00 in 3.00 in (1943)
Month to date snowfall 6.4 1.9  
Since 1 July snowfall 61.3 75.0  
Snow Depth 6.00 in    
Sea Level Pressure  
Sea Level Pressure 30.27 in    
Wind  
Wind Speed 18 mph (SE)    
Max Wind Speed 24 mph    
Max Gust Speed 30 mph    
Visibility 4 miles    
Events Rain , Snow    
T = Trace of Precipitation, MM = Missing Value Source: NWS Daily Summary

Daily Weather History Graph

Daily Weather History Graph

Search for Another Location

Airport:

Trip Planner

Search our weather history database for the weather conditions in past years. The results will help you decide how hot, cold, wet, or windy it might be!

Date:

Astronomy

May. 20, 2013 Rise Set
Actual Time 5:24 AM AKDT 12:34 AM AKDT
Civil Twilight 3:30 AM AKDT 2:25 AM AKDT
Nautical Twilight Sun does not rise Sun does not rise
Astronomical Twilight Sun does not rise Sun does not rise
Moon 6:05 PM AKDT (5/20) 4:29 AM AKDT (5/20)
Length of Visible Light 22h 55m
Length of Day
19h 09m
Waxing Gibbous, 76% of the Moon is Illuminated
May 20
Waxing Gibbous
May 24
Full
May 31
Last Quarter
Jun 8
New
Jun 16
First Quarter

Hourly Weather History & Observations

Time (AKDT) Temp. Windchill Dew Point Humidity Pressure Visibility Wind Dir Wind Speed Gust Speed Precip Events Conditions
12:12 AM 30.2 °F 18.9 °F 30.2 °F 100% 30.35 in 1.0 mi SE 16.1 mph - 0.01 in Snow Light Snow
12:24 AM 30.2 °F 18.9 °F 30.2 °F 100% 30.34 in 0.8 mi SE 16.1 mph - 0.02 in Snow Light Snow
12:36 AM 30.2 °F 18.9 °F 30.2 °F 100% 30.35 in 1.0 mi SE 16.1 mph - 0.02 in Snow Light Snow
12:53 AM 30.9 °F 20.7 °F 30.0 °F 96% 30.36 in 1.2 mi SE 13.8 mph - 0.02 in Snow Light Snow
1:53 AM 30.9 °F 21.2 °F 30.0 °F 96% 30.35 in 1.0 mi SE 12.7 mph - 0.04 in Snow Light Snow
2:05 AM 30.2 °F 19.8 °F 30.2 °F 100% 30.35 in 1.0 mi SE 13.8 mph - 0.00 in Snow Light Snow
2:49 AM 30.2 °F 18.9 °F 30.2 °F 100% 30.34 in 2.0 mi SE 16.1 mph - 0.02 in Snow Light Snow
2:53 AM 30.9 °F 20.7 °F 30.0 °F 96% 30.35 in 1.8 mi SE 13.8 mph - 0.02 in Snow Light Snow
3:53 AM 30.9 °F 19.8 °F 30.0 °F 96% 30.33 in 2.0 mi SE 16.1 mph - 0.01 in Snow Light Snow
4:06 AM 30.2 °F 18.9 °F 30.2 °F 100% 30.32 in 1.5 mi SE 16.1 mph - 0.00 in Snow Light Snow
4:53 AM 30.9 °F 21.2 °F 30.0 °F 96% 30.33 in 2.0 mi SE 12.7 mph - 0.02 in Snow Light Snow
5:06 AM 30.2 °F 20.2 °F 30.2 °F 100% 30.32 in 1.8 mi SE 12.7 mph - 0.01 in Snow Light Snow
5:20 AM 30.2 °F 19.3 °F 30.2 °F 100% 30.33 in 2.0 mi SE 15.0 mph - 0.01 in Snow Light Snow
5:28 AM 30.2 °F 19.8 °F 30.2 °F 100% 30.32 in 3.0 mi SE 13.8 mph - 0.01 in Snow Light Snow
5:53 AM 30.9 °F 20.7 °F 30.0 °F 96% 30.32 in 2.5 mi SE 13.8 mph - 0.01 in Snow Light Snow
6:02 AM 30.2 °F 19.8 °F 30.2 °F 100% 30.32 in 1.0 mi SE 13.8 mph - 0.00 in Snow Light Snow
6:19 AM 30.2 °F 19.8 °F 30.2 °F 100% 30.31 in 0.8 mi SE 13.8 mph - 0.00 in Snow Light Snow
6:45 AM 30.2 °F 19.3 °F 30.2 °F 100% 30.30 in 1.5 mi SE 15.0 mph - 0.01 in Snow Light Snow
6:53 AM 30.9 °F 20.7 °F 30.0 °F 96% 30.31 in 1.2 mi SE 13.8 mph - 0.01 in Snow Light Snow
7:31 AM 30.2 °F 18.9 °F 30.2 °F 100% 30.30 in 3.0 mi SE 16.1 mph - 0.01 in Snow Light Snow
7:53 AM 30.9 °F 19.8 °F 30.0 °F 96% 30.30 in 4.0 mi SE 16.1 mph - 0.01 in Snow Light Snow
8:00 AM 30.2 °F 19.3 °F 30.2 °F 100% 30.29 in 5.0 mi SE 15.0 mph - 0.00 in Snow Light Snow
8:53 AM 32.0 °F 21.2 °F 28.9 °F 88% 30.29 in 10.0 mi ESE 16.1 mph - 0.00 in   Overcast
9:34 AM 32.0 °F 21.6 °F 28.4 °F 87% 30.28 in 10.0 mi SE 15.0 mph - N/A   Overcast
9:53 AM 32.0 °F 20.8 °F 28.9 °F 88% 30.28 in 10.0 mi SE 17.3 mph - N/A   Overcast
10:53 AM 32.0 °F 20.8 °F 30.0 °F 92% 30.27 in 10.0 mi SE 17.3 mph - N/A   Overcast
11:53 AM 33.1 °F 22.6 °F 30.0 °F 89% 30.28 in 10.0 mi ESE 16.1 mph - N/A   Overcast
12:08 PM 33.8 °F 23.5 °F 30.2 °F 87% 30.27 in 10.0 mi ESE 16.1 mph - N/A   Overcast
12:36 PM 33.8 °F 22.8 °F 30.2 °F 87% 30.27 in 10.0 mi ESE 18.4 mph - N/A   Overcast
12:53 PM 34.0 °F 23.8 °F 30.0 °F 85% 30.27 in 10.0 mi SE 16.1 mph - N/A   Overcast
1:53 PM 34.0 °F 23.0 °F 30.0 °F 85% 30.25 in 6.0 mi SE 18.4 mph 25.3 mph 0.00 in Snow Light Snow
2:53 PM 34.0 °F 22.1 °F 32.0 °F 92% 30.25 in 3.0 mi ESE 21.9 mph 27.6 mph 0.00 in Snow Light Snow
3:05 PM 33.8 °F 21.9 °F 32.0 °F 93% 30.24 in 3.0 mi SE 21.9 mph 28.8 mph 0.00 in Snow Light Snow
3:08 PM 33.8 °F 21.9 °F 32.0 °F 93% 30.24 in 2.5 mi SE 21.9 mph 28.8 mph 0.00 in Snow Light Snow
3:53 PM 34.0 °F 22.7 °F 32.0 °F 92% 30.24 in 2.5 mi ESE 19.6 mph - 0.00 in Snow Light Snow
4:00 PM 33.8 °F 22.5 °F 33.8 °F 100% 30.23 in 4.0 mi ESE 19.6 mph - 0.00 in Snow Light Snow
4:53 PM 34.0 °F 22.7 °F 33.1 °F 96% 30.22 in 3.0 mi ESE 19.6 mph - 0.00 in Snow Light Snow
5:53 PM 33.1 °F 21.5 °F 32.0 °F 96% 30.20 in 3.0 mi ESE 19.6 mph - 0.00 in Snow Light Snow
6:31 PM 33.8 °F 21.9 °F 32.0 °F 93% 30.18 in 1.2 mi ESE 21.9 mph 28.8 mph 0.00 in Snow Light Snow
6:53 PM 33.1 °F 20.9 °F 32.0 °F 96% 30.18 in 3.0 mi ESE 21.9 mph 29.9 mph 0.00 in Snow Light Snow
7:53 PM 33.1 °F 20.9 °F 32.0 °F 96% 30.15 in 3.0 mi ESE 21.9 mph - 0.00 in Snow Light Snow
8:09 PM 33.8 °F 21.9 °F 32.0 °F 93% 30.14 in 2.0 mi ESE 21.9 mph 28.8 mph 0.00 in Snow Light Snow
8:53 PM 33.1 °F 21.2 °F 32.0 °F 96% 30.13 in 3.0 mi ESE 20.7 mph - 0.02 in Snow Light Snow
9:53 PM 33.1 °F 21.2 °F 32.0 °F 96% 30.11 in 3.0 mi ESE 20.7 mph 28.8 mph 0.00 in Snow Light Snow
10:53 PM 33.1 °F 20.6 °F 32.0 °F 96% 30.09 in 3.0 mi ESE 23.0 mph 29.9 mph 0.03 in Snow Light Snow
11:53 PM 33.1 °F 21.5 °F 33.1 °F 100% 30.07 in 4.0 mi ESE 19.6 mph 27.6 mph 0.03 in Rain , Snow Light Rain